Regional Weather Roundup
Issued by NWS

Home | Current Version | Previous Version | Graphics & Text | Print | Product List | Glossary On
Versions: 1 2 3 4 5 6 7 8 9 10 11 12 13 14 15 16 17 18 19 20 21 22 23 24 25 26 27
000
ASUS45 KBOU 260610
RWRCO

WEATHER ROUNDUP FOR COLORADO
NATIONAL WEATHER SERVICE DENVER/BOULDER CO
1200 AM MDT MON SEP 26 2016

NOTE: "FAIR" INDICATES FEW OR NO CLOUDS BELOW 12000 FEET WITH NO
SIGNIFICANT WEATHER AND/OR OBSTRUCTIONS TO VISIBILITY.

COZ001>005-013-030-031-260700-
...NORTHWEST COLORADO...

CITY           SKY/WX    TMP DP  RH WIND       PRES   REMARKS
CRAIG          FAIR      39  35  86 CALM      30.51S
HAYDEN         FAIR      43  30  61 NE3       30.52R
MEEKER         FAIR      41  35  79 E6        30.51S
MOUNT WERNER   NOT AVBL
STEAMBOAT SPGS FAIR      38  34  83 CALM      30.53R
WALDEN           N/A     30  23  74 SE9       30.58S WCI  22
$$

COZ006>008-011-260700-
...WEST CENTRAL VALLEYS...

CITY           SKY/WX    TMP DP  RH WIND       PRES   REMARKS
GRAND JUNCTION FAIR      52  38  58 CALM      30.40S
MONTROSE       FAIR      47  37  68 SE9       30.47R
EAGLE          FAIR      43  32  65 SE3       30.54R
RIFLE          FAIR      47  40  76 E5        30.45R
DELTA          NOT AVBL
NUCLA          NOT AVBL
$$

COZ017>023-064>068-260700-
...SOUTHWEST COLORADO...

CITY           SKY/WX    TMP DP  RH WIND       PRES   REMARKS
DURANGO        FAIR      46  36  68 CALM      30.43R
CORTEZ         FAIR      44  36  73 E6        30.41R
PAGOSA SPRINGS FAIR      45  35  66 SW5       30.49R
TELLURIDE      FAIR      42  37  83 SE5       30.59S
WOLF CREEK PAS FAIR      37  27  65 MISG      30.73S
$$

COZ009-010-012-014-032>034-037-058>063-260700-
...CENTRAL COLORADO...

CITY           SKY/WX    TMP DP  RH WIND       PRES   REMARKS
ASPEN          FAIR      39  31  72 SW8       30.53S
BUENA VISTA    FAIR      40  27  60 SW6       30.56S
COPPER MTN     FAIR      37  23  56 NW5       30.72S
BERTHOUD PASS  FAIR      28  14  54 N18       30.71F WCI  16
COTTONWOOD PAS FAIR      45  28  53 CALM      30.62F
GUNNISON       FAIR      40  31  70 CALM      30.54R
KREMMLING      FAIR      36  27  69 CALM      30.57R
LEADVILLE      FAIR      33  22  63 SE3       30.62R
MONARCH PASS   FAIR      37  28  70 CALM      30.81S
SALIDA         FAIR      44  31  60 CALM      30.62S
SUNLIGHT       FAIR      36  32  87 N5        30.69S
WILKERSON PASS FAIR      34  27  75 NW6       30.71R WCI  29
$$

COZ069>075-260700-
...SAN LUIS VALLEY/SANGRE DE CRISTO MOUNTAINS...

CITY           SKY/WX    TMP DP  RH WIND       PRES   REMARKS
ALAMOSA        FAIR      44  30  57 SE9       30.48R
LA VETA PASS   FAIR      34  27  75 MISG      30.63S
SAGUACHE       NOT AVBL
$$

COZ035-036-038>040-260700-
...NORTHERN COLORADO FRONT RANGE...

CITY           SKY/WX    TMP DP  RH WIND       PRES   REMARKS
DENVER INTL AP FAIR      51  28  41 SW8       30.45R
DMNS CITY PARK NOT AVBL
AURORA         CLEAR     49  30  49 SW3       30.46S
FRONT RANGE AP NOT AVBL
ERIE MUNI ARPT FAIR      43  33  66 S3        30.45R
BOULDER MUN AP FAIR      46  34  61 CALM      30.45R
CENTENNIAL     FAIR      48  29  47 S6        30.47R
BROOMFIELD     FAIR      52  32  46 NE6       30.47R
FORT COLLINS   FAIR      48  34  57 N5        30.46S
LONGMONT       FAIR      49  36  62 NW3       30.47R
$$

COZ041-046-047-076>085-087-088-260700-
...PIKES PEAK/PALMER DIVIDE AND SOUTHERN FOOTHILLS...

CITY           SKY/WX    TMP DP  RH WIND       PRES   REMARKS
COLO. SPRINGS  FAIR      50  29  44 E9        30.51R
A. F. ACADEMY  FAIR      38  29  68 N7        30.50S
SCHRIEVER AFB  NOT AVBL
ELLICOTT       NOT AVBL
FALCON         FAIR      44  28  54 CALM      30.53S
FORT CARSON    FAIR      48  30  49 E7        30.48R
LIMON          FAIR      37  25  61 CALM      30.48R
MONUMENT HILL  FAIR      37  27  65 S9        30.53S
TRINIDAD       FAIR      46  33  60 W10       30.48S
$$

COZ042>045-048>051-090-091-260700-
...NORTHEAST COLORADO...

CITY           SKY/WX    TMP DP  RH WIND       PRES   REMARKS
GREELEY ARPT   FAIR      45  36  70 NW6       30.46R
AKRON          FAIR      46  32  58 S6        30.43S
BURLINGTON     FAIR      43  36  76 W6        30.42S
WRAY           FAIR      43  32  65 CALM      30.40S
STERLING       FAIR      43  34  70 CALM      30.41R
HOLYOKE        FAIR      43  36  75 W7        30.40S
FORT MORGAN    FAIR      46  31  56 CALM      30.44S
$$

COZ086-089-092>099-260700-
...SOUTHEAST COLORADO...

CITY           SKY/WX    TMP DP  RH WIND       PRES   REMARKS
PUEBLO         FAIR      51  29  42 NE8       30.45R
LA JUNTA       FAIR      50  32  50 NE7       30.44R
LAMAR          FAIR      46  31  55 CALM      30.41R
SPRINGFIELD    NOT AVBL
$$




USA.gov is the U.S. government's official web portal to all federal, state and local government web resources and services.